Location: Unspecified
(0.0000°N, 0.0000°E)
Time: 18:12:34
(UTC+00:00)

Courier 1B Rocket - Pass Details

Date: 05 October 2020
Orbit: 921 x 1202 km, 28.2° (Epoch: 27 October)

Event Time Altitude Azimuth Distance (km) Brightness Sun altitude
Rises 00:49:43 0° 251° (WSW) 4,054 - -73.9°
Reaches altitude 10° 00:52:42 10° 255° (WSW) 3,063 - -73.2°
Maximum altitude 01:00:01 51° 330° (NNW) 1,365 - -71.5°
Drops below altitude 10° 01:06:51 10° 44° (NE) 2,867 - -69.8°
Sets 01:09:34 0° 50° (NE) 3,776 - -69.2°
